TimeCST,TemperatureF,Dew PointF,Humidity,Sea Level PressureIn,VisibilityMPH,Wind Direction,Wind SpeedMPH,Gust SpeedMPH,PrecipitationIn,Events,Conditions,WindDirDegrees,DateUTC
12:05 AM,51.8,51.8,100,30.07,2.5,Calm,Calm,-,N/A,,Partly Cloudy,0,2012-12-06 06:05:00
12:07 AM,51.8,51.8,100,30.07,2.0,Calm,Calm,-,N/A,,Partly Cloudy,0,2012-12-06 06:07:00
12:13 AM,53.6,53.6,100,30.07,2.5,Calm,Calm,-,N/A,,Scattered Clouds,0,2012-12-06 06:13:00
12:14 AM,53.6,51.8,94,30.07,4.0,Calm,Calm,-,N/A,,Scattered Clouds,0,2012-12-06 06:14:00
12:51 AM,51.8,51.8,100,30.06,2.5,Calm,Calm,-,N/A,,Clear,0,2012-12-06 06:51:00
12:52 AM,51.8,51.8,100,30.06,2.0,Calm,Calm,-,N/A,,Clear,0,2012-12-06 06:52:00
12:55 AM,52.2,52.0,99,30.06,1.8,Calm,Calm,-,N/A,,Clear,0,2012-12-06 06:55:00
1:00 AM,51.8,51.8,100,30.06,1.2,Calm,Calm,-,N/A,,Clear,0,2012-12-06 07:00:00
1:01 AM,51.8,51.8,100,30.06,1.5,Calm,Calm,-,N/A,,Clear,0,2012-12-06 07:01:00
1:13 AM,50.0,50.0,100,30.06,2.0,Calm,Calm,-,N/A,,Clear,0,2012-12-06 07:13:00
1:14 AM,50.0,50.0,100,30.06,2.5,Calm,Calm,-,N/A,,Clear,0,2012-12-06 07:14:00
1:17 AM,50.0,50.0,100,30.06,3.0,Calm,Calm,-,N/A,,Clear,0,2012-12-06 07:17:00
1:55 AM,50.7,50.5,99,30.06,5.0,North,3.5,-,N/A,,Clear,350,2012-12-06 07:55:00
2:33 AM,50.0,50.0,100,30.04,2.5,Calm,Calm,-,N/A,,Clear,0,2012-12-06 08:33:00
2:34 AM,50.0,50.0,100,30.04,2.0,Calm,Calm,-,N/A,,Clear,0,2012-12-06 08:34:00
2:35 AM,50.0,50.0,100,30.04,1.8,Calm,Calm,-,N/A,,Clear,0,2012-12-06 08:35:00
2:39 AM,50.0,50.0,100,30.04,1.2,Calm,Calm,-,N/A,,Clear,0,2012-12-06 08:39:00
2:41 AM,50.0,50.0,100,30.04,1.0,Calm,Calm,-,N/A,,Clear,0,2012-12-06 08:41:00
2:43 AM,50.0,50.0,100,30.04,0.8,Calm,Calm,-,N/A,,Clear,0,2012-12-06 08:43:00
2:46 AM,50.0,50.0,100,30.04,1.0,Calm,Calm,-,N/A,,Clear,0,2012-12-06 08:46:00
2:47 AM,50.0,50.0,100,30.04,0.8,Calm,Calm,-,N/A,,Clear,0,2012-12-06 08:47:00
2:48 AM,50.0,50.0,100,30.04,1.0,Calm,Calm,-,N/A,,Clear,0,2012-12-06 08:48:00
2:55 AM,49.6,49.3,99,30.04,1.2,Calm,Calm,-,N/A,,Clear,0,2012-12-06 08:55:00
3:08 AM,50.0,50.0,100,30.04,2.0,Calm,Calm,-,N/A,,Clear,0,2012-12-06 09:08:00
3:09 AM,50.0,50.0,100,30.04,2.5,Calm,Calm,-,N/A,,Clear,0,2012-12-06 09:09:00
3:11 AM,50.0,50.0,100,30.04,3.0,Calm,Calm,-,N/A,,Clear,0,2012-12-06 09:11:00
3:20 AM,48.2,48.2,100,30.04,2.5,Calm,Calm,-,N/A,,Clear,0,2012-12-06 09:20:00
3:21 AM,48.2,48.2,100,30.04,2.0,Calm,Calm,-,N/A,,Clear,0,2012-12-06 09:21:00
3:22 AM,48.2,48.2,100,30.04,1.8,Calm,Calm,-,N/A,,Clear,0,2012-12-06 09:22:00
3:23 AM,48.2,48.2,100,30.04,1.2,Calm,Calm,-,N/A,,Clear,0,2012-12-06 09:23:00
3:24 AM,48.2,48.2,100,30.04,1.0,Calm,Calm,-,N/A,,Clear,0,2012-12-06 09:24:00
3:25 AM,48.2,48.2,100,30.04,0.8,Calm,Calm,-,N/A,,Clear,0,2012-12-06 09:25:00
3:27 AM,48.2,48.2,100,30.04,0.5,Calm,Calm,-,N/A,Fog,Fog,0,2012-12-06 09:27:00
3:30 AM,48.2,48.2,100,30.04,0.8,Calm,Calm,-,N/A,,Clear,0,2012-12-06 09:30:00
3:35 AM,48.2,48.2,100,30.03,1.0,Calm,Calm,-,N/A,,Clear,0,2012-12-06 09:35:00
3:36 AM,48.2,48.2,100,30.03,1.2,Calm,Calm,-,N/A,,Clear,0,2012-12-06 09:36:00
3:37 AM,48.2,48.2,100,30.03,1.8,Calm,Calm,-,N/A,,Clear,0,2012-12-06 09:37:00
3:38 AM,48.2,48.2,100,30.03,2.0,Calm,Calm,-,N/A,,Clear,0,2012-12-06 09:38:00
3:39 AM,48.2,48.2,100,30.03,2.5,Calm,Calm,-,N/A,,Clear,0,2012-12-06 09:39:00
3:41 AM,48.2,48.2,100,30.03,3.0,Calm,Calm,-,N/A,,Clear,0,2012-12-06 09:41:00
3:55 AM,48.2,47.8,99,30.03,10.0,Calm,Calm,-,N/A,,Clear,0,2012-12-06 09:55:00
4:55 AM,48.4,48.0,99,30.03,5.0,Calm,Calm,-,N/A,,Clear,0,2012-12-06 10:55:00
4:57 AM,48.2,48.2,100,30.04,2.5,Calm,Calm,-,N/A,,Clear,0,2012-12-06 10:57:00
4:58 AM,48.2,48.2,100,30.04,1.8,Calm,Calm,-,N/A,,Clear,0,2012-12-06 10:58:00
5:01 AM,48.2,48.2,100,30.04,1.2,Calm,Calm,-,N/A,,Clear,0,2012-12-06 11:01:00
5:06 AM,48.2,48.2,100,30.04,1.5,NNE,3.5,-,N/A,,Clear,20,2012-12-06 11:06:00
5:08 AM,48.2,46.4,93,30.04,2.5,NNE,3.5,-,N/A,,Clear,20,2012-12-06 11:08:00
5:09 AM,46.4,46.4,100,30.04,3.0,NNE,3.5,-,N/A,,Clear,20,2012-12-06 11:09:00
5:55 AM,45.9,45.7,99,30.06,7.0,NNE,3.5,-,N/A,,Clear,20,2012-12-06 11:55:00
5:56 AM,46.4,44.6,93,30.06,2.5,NNE,3.5,-,N/A,,Clear,20,2012-12-06 11:56:00
5:57 AM,46.4,44.6,93,30.06,1.8,NNE,3.5,-,N/A,,Clear,20,2012-12-06 11:57:00
5:59 AM,46.4,44.6,93,30.06,1.2,NNE,3.5,-,N/A,,Clear,20,2012-12-06 11:59:00
6:00 AM,46.4,44.6,93,30.06,1.0,NNE,3.5,-,N/A,,Clear,30,2012-12-06 12:00:00
6:04 AM,46.4,46.4,100,30.06,0.8,NE,3.5,-,N/A,,Clear,50,2012-12-06 12:04:00
6:06 AM,46.4,46.4,100,30.06,1.0,NE,3.5,-,N/A,,Clear,50,2012-12-06 12:06:00
6:08 AM,46.4,46.4,100,30.06,1.2,NE,3.5,-,N/A,,Clear,50,2012-12-06 12:08:00
6:09 AM,46.4,46.4,100,30.06,1.5,NE,3.5,-,N/A,,Clear,50,2012-12-06 12:09:00
6:11 AM,46.4,46.4,100,30.06,2.0,NE,4.6,-,N/A,,Clear,50,2012-12-06 12:11:00
6:12 AM,46.4,46.4,100,30.06,2.5,NE,4.6,-,N/A,,Clear,50,2012-12-06 12:12:00
6:14 AM,46.4,46.4,100,30.06,4.0,NE,3.5,-,N/A,,Clear,50,2012-12-06 12:14:00
6:55 AM,46.9,46.6,99,30.07,8.0,Calm,Calm,-,N/A,,Clear,0,2012-12-06 12:55:00
7:55 AM,55.2,53.8,95,30.07,10.0,Calm,Calm,-,N/A,,Clear,0,2012-12-06 13:55:00
8:55 AM,65.3,57.4,76,30.08,10.0,ESE,4.6,-,N/A,,Partly Cloudy,110,2012-12-06 14:55:00
9:55 AM,71.1,56.8,61,30.08,10.0,ESE,5.8,-,N/A,,Partly Cloudy,110,2012-12-06 15:55:00
10:55 AM,73.4,56.3,55,30.06,10.0,SE,5.8,-,N/A,,Partly Cloudy,130,2012-12-06 16:55:00
11:55 AM,76.1,54.7,47,30.01,10.0,Variable,4.6,-,N/A,,Scattered Clouds,0,2012-12-06 17:55:00
12:55 PM,77.9,54.7,45,29.99,10.0,East,8.1,-,N/A,,Mostly Cloudy,100,2012-12-06 18:55:00
1:55 PM,75.4,53.6,47,29.99,10.0,SE,8.1,-,N/A,,Mostly Cloudy,130,2012-12-06 19:55:00
2:55 PM,73.8,54.9,52,29.99,10.0,ENE,3.5,-,N/A,,Scattered Clouds,70,2012-12-06 20:55:00
3:55 PM,73.4,54.7,52,29.99,10.0,East,4.6,-,N/A,,Scattered Clouds,100,2012-12-06 21:55:00
4:55 PM,68.7,56.1,64,29.99,10.0,Calm,Calm,-,N/A,,Scattered Clouds,0,2012-12-06 22:55:00
5:55 PM,63.1,57.2,81,30.00,10.0,Calm,Calm,-,N/A,,Scattered Clouds,0,2012-12-06 23:55:00
6:55 PM,59.2,55.4,87,30.00,10.0,ESE,3.5,-,N/A,,Partly Cloudy,120,2012-12-07 00:55:00
7:55 PM,58.5,55.0,88,30.01,10.0,Calm,Calm,-,N/A,,Scattered Clouds,0,2012-12-07 01:55:00
8:55 PM,58.3,53.8,85,30.00,10.0,Calm,Calm,-,N/A,,Partly Cloudy,0,2012-12-07 02:55:00
9:55 PM,56.5,53.4,89,30.01,10.0,NE,3.5,-,N/A,,Scattered Clouds,50,2012-12-07 03:55:00
10:55 PM,59.0,55.2,87,30.01,10.0,NE,3.5,-,N/A,,Partly Cloudy,50,2012-12-07 04:55:00
11:55 PM,58.5,55.9,91,30.00,10.0,ENE,3.5,-,N/A,,Partly Cloudy,70,2012-12-07 05:55:00